PulseSat

PulseSat

MOLNIYA 3-24

Last updated on April 20, 2019, 3:02 a.m. UTC

1 15738U 85040A   19109.45565796  .00000059  00000-0  80748-2 0  9991
2 15738  64.0387 271.9624 6480369 256.3504 108.7989  2.55627742274382
UTC
Height (km)
Latitude
Longitude
Inclination
Orbital Period

Next 30 passes for location: Hong Kong

Rise time Rise Azimuth (degrees) Set time Set Azimuth (degrees) Duration Max altitude (degrees)

No matching passes for this satellites

PulseSat

PulseSat is the new satellites software and hardware trackering solution by Pulsely.
Satellite Two Line Element Set source: US Air Force Space Command

Download PulseSat for iOS
© 2017 Pulsely Limited